Time,TemperatureF,DewpointF,PressureIn,WindDirection,WindDirectionDegrees,WindSpeedMPH,WindSpeedGustMPH,Humidity,HourlyPrecipIn,Conditions,Clouds,dailyrainin,SoftwareType,DateUTC
2013-12-12 00:00:00,4.4,0.9,30.17,WNW,292,1.0,1.0,85,0.00,,,0.00,Wunderground v.1.15,2013-12-12 05:00:00,
2013-12-12 00:05:00,4.5,1.0,30.17,WNW,292,1.0,1.0,85,0.00,,,0.00,Wunderground v.1.15,2013-12-12 05:05:00,
2013-12-12 00:15:00,5.5,2.5,30.17,WSW,253,2.0,2.0,87,0.00,,,0.00,Wunderground v.1.15,2013-12-12 05:15:00,
2013-12-12 00:20:00,6.7,3.4,30.17,SW,220,3.0,3.0,86,0.00,,,0.00,Wunderground v.1.15,2013-12-12 05:20:00,
2013-12-12 00:30:00,8.0,3.9,30.17,WSW,238,3.0,3.0,83,0.00,,,0.00,Wunderground v.1.15,2013-12-12 05:30:00,
2013-12-12 00:35:00,8.1,3.7,30.17,WSW,238,3.0,3.0,82,0.00,,,0.00,Wunderground v.1.15,2013-12-12 05:35:00,
2013-12-12 00:45:00,7.7,3.1,30.17,WSW,238,2.0,2.0,81,0.00,,,0.00,Wunderground v.1.15,2013-12-12 05:45:00,
2013-12-12 00:50:00,7.3,2.7,30.17,WSW,238,1.0,1.0,81,0.00,,,0.00,Wunderground v.1.15,2013-12-12 05:50:00,
2013-12-12 00:55:00,7.1,2.8,30.17,WSW,238,1.0,1.0,82,0.00,,,0.00,Wunderground v.1.15,2013-12-12 05:55:00,
2013-12-12 01:00:00,6.8,2.5,30.17,WSW,238,0.0,0.0,82,0.00,,,0.00,Wunderground v.1.15,2013-12-12 06:00:00,
2013-12-12 01:05:00,6.3,1.7,30.18,WSW,238,0.0,0.0,81,0.00,,,0.00,Wunderground v.1.15,2013-12-12 06:05:00,
2013-12-12 01:10:00,5.8,1.5,30.18,WSW,238,0.0,0.0,82,0.00,,,0.00,Wunderground v.1.15,2013-12-12 06:10:00,
2013-12-12 01:15:00,5.4,1.1,30.18,WSW,238,0.0,0.0,82,0.00,,,0.00,Wunderground v.1.15,2013-12-12 06:15:00,
2013-12-12 01:25:00,4.6,0.3,30.18,WSW,238,0.0,1.0,82,0.00,,,0.00,Wunderground v.1.15,2013-12-12 06:25:00,
2013-12-12 01:30:00,4.1,0.1,30.18,WSW,238,0.0,0.0,83,0.00,,,0.00,Wunderground v.1.15,2013-12-12 06:30:00,
2013-12-12 01:35:00,3.6,-0.7,30.18,WSW,238,0.0,0.0,82,0.00,,,0.00,Wunderground v.1.15,2013-12-12 06:35:00,
2013-12-12 01:40:00,3.1,-1.2,30.19,WSW,238,0.0,0.0,82,0.00,,,0.00,Wunderground v.1.15,2013-12-12 06:40:00,
2013-12-12 01:45:00,2.8,-1.4,30.19,WSW,238,0.0,0.0,82,0.00,,,0.00,Wunderground v.1.15,2013-12-12 06:45:00,
2013-12-12 01:50:00,2.3,-2.2,30.19,WSW,238,0.0,0.0,81,0.00,,,0.00,Wunderground v.1.15,2013-12-12 06:50:00,
2013-12-12 01:55:00,1.8,-2.7,30.19,WSW,238,0.0,0.0,81,0.00,,,0.00,Wunderground v.1.15,2013-12-12 06:55:00,
2013-12-12 02:00:00,1.3,-3.2,30.19,WSW,238,0.0,0.0,81,0.00,,,0.00,Wunderground v.1.15,2013-12-12 07:00:00,
2013-12-12 02:05:00,1.0,-3.5,30.19,WSW,238,0.0,0.0,81,0.00,,,0.00,Wunderground v.1.15,2013-12-12 07:05:00,
2013-12-12 02:10:00,0.6,-3.9,30.19,WSW,238,0.0,0.0,81,0.00,,,0.00,Wunderground v.1.15,2013-12-12 07:10:00,
2013-12-12 02:15:00,0.3,-3.9,30.19,WSW,238,0.0,0.0,82,0.00,,,0.00,Wunderground v.1.15,2013-12-12 07:15:00,
2013-12-12 02:20:00,0.1,-4.1,30.20,WSW,238,0.0,0.0,82,0.00,,,0.00,Wunderground v.1.15,2013-12-12 07:20:00,
2013-12-12 02:25:00,-0.1,-4.3,30.20,WSW,238,0.0,0.0,82,0.00,,,0.00,Wunderground v.1.15,2013-12-12 07:25:00,
2013-12-12 02:30:00,-0.3,-4.5,30.20,WSW,238,0.0,1.0,82,0.00,,,0.00,Wunderground v.1.15,2013-12-12 07:30:00,
2013-12-12 02:35:00,-0.5,-4.4,30.20,WSW,238,0.0,1.0,83,0.00,,,0.00,Wunderground v.1.15,2013-12-12 07:35:00,
2013-12-12 02:40:00,-0.9,-5.1,30.20,WSW,238,0.0,0.0,82,0.00,,,0.00,Wunderground v.1.15,2013-12-12 07:40:00,
2013-12-12 02:45:00,-1.1,-5.3,30.20,WSW,238,0.0,0.0,82,0.00,,,0.00,Wunderground v.1.15,2013-12-12 07:45:00,
2013-12-12 02:50:00,-1.2,-5.1,30.20,WSW,238,0.0,0.0,83,0.00,,,0.00,Wunderground v.1.15,2013-12-12 07:50:00,
2013-12-12 02:55:00,-1.3,-5.5,30.20,WSW,238,0.0,0.0,82,0.00,,,0.00,Wunderground v.1.15,2013-12-12 07:55:00,
2013-12-12 03:00:00,-1.4,-5.6,30.21,WSW,238,0.0,0.0,82,0.00,,,0.00,Wunderground v.1.15,2013-12-12 08:00:00,
2013-12-12 03:05:00,-1.6,-5.8,30.21,WSW,238,0.0,0.0,82,0.00,,,0.00,Wunderground v.1.15,2013-12-12 08:05:00,
2013-12-12 03:15:00,-1.2,-4.9,30.21,WSW,238,1.0,1.0,84,0.00,,,0.00,Wunderground v.1.15,2013-12-12 08:15:00,
2013-12-12 03:25:00,-0.9,-4.6,30.21,WSW,238,1.0,1.0,84,0.00,,,0.00,Wunderground v.1.15,2013-12-12 08:25:00,
2013-12-12 03:40:00,4.4,1.6,30.21,WSW,244,2.0,4.0,88,0.00,,,0.00,Wunderground v.1.15,2013-12-12 08:40:00,
2013-12-12 03:45:00,5.6,2.1,30.21,WSW,246,3.0,5.0,85,0.00,,,0.00,Wunderground v.1.15,2013-12-12 08:45:00,
2013-12-12 04:20:00,5.9,1.6,30.22,West,269,1.0,3.0,82,0.00,,,0.00,Wunderground v.1.15,2013-12-12 09:20:00,
2013-12-12 04:25:00,6.0,1.7,30.22,SW,222,1.0,4.0,82,0.00,,,0.00,Wunderground v.1.15,2013-12-12 09:25:00,
2013-12-12 04:30:00,6.0,1.7,30.22,WSW,256,2.0,2.0,82,0.00,,,0.00,Wunderground v.1.15,2013-12-12 09:30:00,
2013-12-12 04:35:00,6.1,1.8,30.22,NW,315,1.0,2.0,82,0.00,,,0.00,Wunderground v.1.15,2013-12-12 09:35:00,
2013-12-12 04:40:00,6.1,1.5,30.22,SSW,213,1.0,4.0,81,0.00,,,0.00,Wunderground v.1.15,2013-12-12 09:40:00,
2013-12-12 04:45:00,6.1,1.3,30.22,NW,320,2.0,4.0,80,0.00,,,0.00,Wunderground v.1.15,2013-12-12 09:45:00,
2013-12-12 04:50:00,6.0,1.2,30.22,West,271,2.0,2.0,80,0.00,,,0.00,Wunderground v.1.15,2013-12-12 09:50:00,
2013-12-12 04:55:00,5.9,1.1,30.22,North,355,1.0,2.0,80,0.00,,,0.00,Wunderground v.1.15,2013-12-12 09:55:00,
2013-12-12 05:00:00,5.8,0.7,30.22,NW,326,1.0,1.0,79,0.00,,,0.00,Wunderground v.1.15,2013-12-12 10:00:00,
2013-12-12 05:05:00,5.7,0.6,30.22,NW,323,1.0,1.0,79,0.00,,,0.00,Wunderground v.1.15,2013-12-12 10:05:00,
2013-12-12 05:10:00,5.5,0.4,30.22,NNW,330,1.0,1.0,79,0.00,,,0.00,Wunderground v.1.15,2013-12-12 10:10:00,
2013-12-12 05:15:00,5.2,0.1,30.23,NNW,330,1.0,1.0,79,0.00,,,0.00,Wunderground v.1.15,2013-12-12 10:15:00,
2013-12-12 05:20:00,5.0,-0.1,30.23,NNW,330,1.0,3.0,79,0.00,,,0.00,Wunderground v.1.15,2013-12-12 10:20:00,
2013-12-12 05:25:00,4.8,-0.3,30.23,NNW,330,1.0,3.0,79,0.00,,,0.00,Wunderground v.1.15,2013-12-12 10:25:00,
2013-12-12 05:30:00,4.4,-0.9,30.23,NNW,330,1.0,1.0,78,0.00,,,0.00,Wunderground v.1.15,2013-12-12 10:30:00,
2013-12-12 05:50:00,2.3,-2.7,30.24,North,5,2.0,2.0,79,0.00,,,0.00,Wunderground v.1.15,2013-12-12 10:50:00,
2013-12-12 05:55:00,2.0,-2.8,30.24,North,5,2.0,2.0,80,0.00,,,0.00,Wunderground v.1.15,2013-12-12 10:55:00,
2013-12-12 06:00:00,1.7,-3.3,30.24,North,5,1.0,1.0,79,0.00,,,0.00,Wunderground v.1.15,2013-12-12 11:00:00,
2013-12-12 06:05:00,1.4,-3.3,30.25,North,5,0.0,1.0,80,0.00,,,0.00,Wunderground v.1.15,2013-12-12 11:05:00,
2013-12-12 06:10:00,1.0,-3.7,30.25,North,5,0.0,0.0,80,0.00,,,0.00,Wunderground v.1.15,2013-12-12 11:10:00,
2013-12-12 06:14:00,0.5,-4.2,30.25,North,5,0.0,0.0,80,0.00,,,0.00,Wunderground v.1.15,2013-12-12 11:14:00,
2013-12-12 06:20:00,-0.1,-4.8,30.25,North,5,0.0,0.0,80,0.00,,,0.00,Wunderground v.1.15,2013-12-12 11:20:00,
2013-12-12 06:25:00,-0.8,-5.5,30.26,North,5,0.0,0.0,80,0.00,,,0.00,Wunderground v.1.15,2013-12-12 11:25:00,
2013-12-12 06:30:00,-1.2,-5.6,30.26,North,5,0.0,0.0,81,0.00,,,0.00,Wunderground v.1.15,2013-12-12 11:30:00,
2013-12-12 06:35:00,-1.4,-5.6,30.26,West,272,0.0,0.0,82,0.00,,,0.00,Wunderground v.1.15,2013-12-12 11:35:00,
2013-12-12 06:40:00,-1.9,-6.3,30.26,West,272,1.0,1.0,81,0.00,,,0.00,Wunderground v.1.15,2013-12-12 11:40:00,
2013-12-12 06:50:00,-2.5,-6.6,30.27,West,272,0.0,2.0,82,0.00,,,0.00,Wunderground v.1.15,2013-12-12 11:50:00,
2013-12-12 07:00:00,-2.9,-7.3,30.27,West,272,0.0,0.0,81,0.00,,,0.00,Wunderground v.1.15,2013-12-12 12:00:00,
2013-12-12 07:10:00,-3.8,-8.2,30.27,West,272,0.0,1.0,81,0.00,,,0.00,Wunderground v.1.15,2013-12-12 12:10:00,
2013-12-12 07:15:00,-3.6,-8.0,30.27,West,272,0.0,1.0,81,0.00,,,0.00,Wunderground v.1.15,2013-12-12 12:15:00,
2013-12-12 07:20:00,-4.1,-8.5,30.28,West,272,0.0,0.0,81,0.00,,,0.00,Wunderground v.1.15,2013-12-12 12:20:00,
2013-12-12 07:30:00,-4.5,-8.8,30.28,West,272,0.0,0.0,81,0.00,,,0.00,Wunderground v.1.15,2013-12-12 12:30:00,
2013-12-12 07:40:00,-4.9,-9.2,30.29,West,272,0.0,1.0,81,0.00,,,0.00,Wunderground v.1.15,2013-12-12 12:40:00,
2013-12-12 07:45:00,-4.6,-8.4,30.29,West,272,0.0,1.0,83,0.00,,,0.00,Wunderground v.1.15,2013-12-12 12:45:00,
2013-12-12 07:50:00,-3.7,-7.3,30.29,SW,221,1.0,1.0,84,0.00,,,0.00,Wunderground v.1.15,2013-12-12 12:50:00,
2013-12-12 07:55:00,-2.9,-6.5,30.29,WSW,250,1.0,3.0,84,0.00,,,0.00,Wunderground v.1.15,2013-12-12 12:55:00,
2013-12-12 08:00:00,-2.0,-5.6,30.30,WSW,250,1.0,1.0,84,0.00,,,0.00,Wunderground v.1.15,2013-12-12 13:00:00,
2013-12-12 08:10:00,-1.2,-5.1,30.30,WSW,250,1.0,2.0,83,0.00,,,0.00,Wunderground v.1.15,2013-12-12 13:10:00,
2013-12-12 08:15:00,-0.2,-4.1,30.30,WSW,250,2.0,2.0,83,0.00,,,0.00,Wunderground v.1.15,2013-12-12 13:15:00,
2013-12-12 08:20:00,1.1,-3.1,30.30,WSW,251,2.0,3.0,82,0.00,,,0.00,Wunderground v.1.15,2013-12-12 13:20:00,
2013-12-12 08:25:00,2.0,-2.8,30.30,WSW,251,2.0,3.0,80,0.00,,,0.00,Wunderground v.1.15,2013-12-12 13:25:00,
2013-12-12 08:30:00,2.8,-2.2,30.30,North,5,2.0,3.0,79,0.00,,,0.00,Wunderground v.1.15,2013-12-12 13:30:00,
2013-12-12 08:35:00,3.3,-2.3,30.30,WNW,291,2.0,3.0,77,0.00,,,0.00,Wunderground v.1.15,2013-12-12 13:35:00,
2013-12-12 08:40:00,3.7,-1.9,30.31,WNW,298,2.0,2.0,77,0.00,,,0.00,Wunderground v.1.15,2013-12-12 13:40:00,
2013-12-12 08:50:00,4.5,-2.0,30.30,WSW,239,2.0,2.0,74,0.00,,,0.00,Wunderground v.1.15,2013-12-12 13:50:00,
2013-12-12 08:55:00,4.7,-1.5,30.31,North,360,2.0,2.0,75,0.00,,,0.00,Wunderground v.1.15,2013-12-12 13:55:00,
2013-12-12 09:00:00,5.0,-1.2,30.31,WSW,244,1.0,1.0,75,0.00,,,0.00,Wunderground v.1.15,2013-12-12 14:00:00,
2013-12-12 09:05:00,5.8,-0.7,30.31,WSW,244,1.0,1.0,74,0.00,,,0.00,Wunderground v.1.15,2013-12-12 14:05:00,
2013-12-12 09:10:00,5.7,-1.4,30.30,NNW,342,1.0,4.0,72,0.00,,,0.00,Wunderground v.1.15,2013-12-12 14:10:00,
2013-12-12 09:15:00,5.3,-1.8,30.31,WNW,294,2.0,2.0,72,0.00,,,0.00,Wunderground v.1.15,2013-12-12 14:15:00,
2013-12-12 09:20:00,5.2,-2.2,30.31,South,180,3.0,3.0,71,0.00,,,0.00,Wunderground v.1.15,2013-12-12 14:20:00,
2013-12-12 09:25:00,5.0,-2.1,30.31,SW,236,3.0,3.0,72,0.00,,,0.00,Wunderground v.1.15,2013-12-12 14:25:00,
2013-12-12 09:30:00,5.2,-1.9,30.31,SW,226,3.0,4.0,72,0.00,,,0.00,Wunderground v.1.15,2013-12-12 14:30:00,
2013-12-12 09:35:00,5.3,-1.8,30.31,WSW,240,3.0,4.0,72,0.00,,,0.00,Wunderground v.1.15,2013-12-12 14:35:00,
2013-12-12 09:40:00,5.4,-1.7,30.31,West,271,3.0,4.0,72,0.00,,,0.00,Wunderground v.1.15,2013-12-12 14:40:00,
2013-12-12 09:45:00,5.7,-1.1,30.31,WNW,283,2.0,2.0,73,0.00,,,0.00,Wunderground v.1.15,2013-12-12 14:45:00,
2013-12-12 09:50:00,6.0,-1.1,30.30,WNW,289,2.0,2.0,72,0.00,,,0.00,Wunderground v.1.15,2013-12-12 14:50:00,
2013-12-12 09:55:00,6.2,-0.9,30.30,WSW,251,3.0,8.0,72,0.00,,,0.00,Wunderground v.1.15,2013-12-12 14:55:00,
2013-12-12 10:00:00,5.8,-1.3,30.30,SW,228,4.0,4.0,72,0.00,,,0.00,Wunderground v.1.15,2013-12-12 15:00:00,
2013-12-12 10:05:00,5.8,-1.3,30.30,WSW,244,5.0,5.0,72,0.00,,,0.00,Wunderground v.1.15,2013-12-12 15:05:00,
2013-12-12 10:10:00,6.1,-1.0,30.30,SSW,195,5.0,7.0,72,0.00,,,0.00,Wunderground v.1.15,2013-12-12 15:10:00,
2013-12-12 10:15:00,6.4,-0.1,30.30,North,355,5.0,7.0,74,0.00,,,0.00,Wunderground v.1.15,2013-12-12 15:15:00,
2013-12-12 10:20:00,7.3,0.5,30.30,West,265,4.0,4.0,73,0.00,,,0.00,Wunderground v.1.15,2013-12-12 15:20:00,
2013-12-12 10:25:00,7.5,0.1,30.30,WSW,248,3.0,7.0,71,0.00,,,0.00,Wunderground v.1.15,2013-12-12 15:25:00,
2013-12-12 10:30:00,7.4,-0.3,30.30,WSW,253,3.0,3.0,70,0.00,,,0.00,Wunderground v.1.15,2013-12-12 15:30:00,
2013-12-12 10:35:00,7.4,-0.3,30.29,WSW,239,3.0,3.0,70,0.00,,,0.00,Wunderground v.1.15,2013-12-12 15:35:00,
2013-12-12 10:40:00,7.0,-1.0,30.29,WSW,244,5.0,5.0,69,0.00,,,0.00,Wunderground v.1.15,2013-12-12 15:40:00,
2013-12-12 10:45:00,6.8,-0.9,30.29,WSW,252,6.0,6.0,70,0.00,,,0.00,Wunderground v.1.15,2013-12-12 15:45:00,
2013-12-12 10:55:00,7.3,-0.7,30.28,WSW,238,3.0,5.0,69,0.00,,,0.00,Wunderground v.1.15,2013-12-12 15:55:00,
2013-12-12 11:00:00,7.4,-0.6,30.28,West,267,4.0,4.0,69,0.00,,,0.00,Wunderground v.1.15,2013-12-12 16:00:00,
2013-12-12 11:10:00,7.8,-1.2,30.27,WSW,246,4.0,5.0,66,0.00,,,0.00,Wunderground v.1.15,2013-12-12 16:10:00,
2013-12-12 11:15:00,7.6,-1.4,30.26,NW,320,6.0,6.0,66,0.00,,,0.00,Wunderground v.1.15,2013-12-12 16:15:00,
2013-12-12 11:20:00,8.1,-0.6,30.26,WSW,239,5.0,5.0,67,0.00,,,0.00,Wunderground v.1.15,2013-12-12 16:20:00,
2013-12-12 11:25:00,8.9,0.2,30.25,WSW,253,3.0,5.0,67,0.00,,,0.00,Wunderground v.1.15,2013-12-12 16:25:00,
2013-12-12 11:30:00,9.0,-0.7,30.25,South,184,3.0,4.0,64,0.00,,,0.00,Wunderground v.1.15,2013-12-12 16:30:00,
2013-12-12 11:35:00,8.6,-1.1,30.25,WNW,284,4.0,5.0,64,0.00,,,0.00,Wunderground v.1.15,2013-12-12 16:35:00,
2013-12-12 11:40:00,8.5,-0.9,30.25,West,265,5.0,5.0,65,0.00,,,0.00,Wunderground v.1.15,2013-12-12 16:40:00,
2013-12-12 11:45:00,8.6,-1.1,30.25,SSW,207,4.0,5.0,64,0.00,,,0.00,Wunderground v.1.15,2013-12-12 16:45:00,
2013-12-12 11:50:00,8.7,-1.0,30.24,South,180,5.0,5.0,64,0.00,,,0.00,Wunderground v.1.15,2013-12-12 16:50:00,
2013-12-12 11:55:00,9.2,-0.5,30.24,SW,230,3.0,5.0,64,0.00,,,0.00,Wunderground v.1.15,2013-12-12 16:55:00,
2013-12-12 12:00:00,9.3,-1.1,30.24,WNW,296,3.0,3.0,62,0.00,,,0.00,Wunderground v.1.15,2013-12-12 17:00:00,
2013-12-12 12:05:00,9.3,-0.8,30.24,South,174,4.0,4.0,63,0.00,,,0.00,Wunderground v.1.15,2013-12-12 17:05:00,
2013-12-12 12:15:00,9.4,-0.7,30.23,WSW,257,3.0,6.0,63,0.00,,,0.00,Wunderground v.1.15,2013-12-12 17:15:00,
2013-12-12 12:20:00,9.4,-0.7,30.23,SSE,153,3.0,3.0,63,0.00,,,0.00,Wunderground v.1.15,2013-12-12 17:20:00,
2013-12-12 12:25:00,9.3,-0.8,30.23,SW,221,4.0,7.0,63,0.00,,,0.00,Wunderground v.1.15,2013-12-12 17:25:00,
2013-12-12 12:30:00,9.4,-0.3,30.23,West,279,4.0,4.0,64,0.00,,,0.00,Wunderground v.1.15,2013-12-12 17:30:00,
2013-12-12 12:35:00,9.6,-0.1,30.23,WSW,238,5.0,5.0,64,0.00,,,0.00,Wunderground v.1.15,2013-12-12 17:35:00,
2013-12-12 12:45:00,9.8,-0.3,30.23,WSW,251,5.0,5.0,63,0.00,,,0.00,Wunderground v.1.15,2013-12-12 17:45:00,
2013-12-12 12:50:00,9.8,-0.6,30.22,West,273,5.0,5.0,62,0.00,,,0.00,Wunderground v.1.15,2013-12-12 17:50:00,
2013-12-12 12:55:00,10.1,0.0,30.22,WSW,240,4.0,5.0,63,0.00,,,0.00,Wunderground v.1.15,2013-12-12 17:55:00,
2013-12-12 13:00:00,10.4,-0.1,30.22,WNW,282,4.0,4.0,62,0.00,,,0.00,Wunderground v.1.15,2013-12-12 18:00:00,
2013-12-12 13:05:00,10.4,-0.1,30.22,SW,217,5.0,5.0,62,0.00,,,0.00,Wunderground v.1.15,2013-12-12 18:05:00,
2013-12-12 13:10:00,10.4,-0.4,30.22,WNW,298,5.0,5.0,61,0.00,,,0.00,Wunderground v.1.15,2013-12-12 18:10:00,
2013-12-12 13:20:00,11.0,0.2,30.22,West,272,4.0,5.0,61,0.00,,,0.00,Wunderground v.1.15,2013-12-12 18:20:00,
2013-12-12 13:25:00,11.2,0.0,30.21,North,11,5.0,5.0,60,0.00,,,0.00,Wunderground v.1.15,2013-12-12 18:25:00,
2013-12-12 13:35:00,11.1,-0.8,30.21,SW,235,5.0,10.0,58,0.00,,,0.00,Wunderground v.1.15,2013-12-12 18:35:00,
2013-12-12 13:45:00,11.4,-0.2,30.21,SSW,199,4.0,11.0,59,0.00,,,0.00,Wunderground v.1.15,2013-12-12 18:45:00,
2013-12-12 13:50:00,11.1,-0.5,30.21,SSW,213,6.0,11.0,59,0.00,,,0.00,Wunderground v.1.15,2013-12-12 18:50:00,
2013-12-12 13:55:00,11.2,-0.4,30.21,WSW,247,6.0,6.0,59,0.00,,,0.00,Wunderground v.1.15,2013-12-12 18:55:00,
2013-12-12 14:00:00,11.4,0.2,30.21,SW,218,5.0,5.0,60,0.00,,,0.00,Wunderground v.1.15,2013-12-12 19:00:00,
2013-12-12 14:05:00,11.3,-0.6,30.21,WSW,249,5.0,5.0,58,0.00,,,0.00,Wunderground v.1.15,2013-12-12 19:05:00,
2013-12-12 14:10:00,11.2,-0.4,30.20,WSW,242,5.0,5.0,59,0.00,,,0.00,Wunderground v.1.15,2013-12-12 19:10:00,
2013-12-12 14:15:00,11.0,-0.2,30.20,SSW,209,5.0,5.0,60,0.00,,,0.00,Wunderground v.1.15,2013-12-12 19:15:00,
2013-12-12 14:20:00,11.2,0.0,30.20,WSW,248,5.0,5.0,60,0.00,,,0.00,Wunderground v.1.15,2013-12-12 19:20:00,
2013-12-12 14:25:00,11.0,-0.5,30.20,SW,232,6.0,6.0,59,0.00,,,0.00,Wunderground v.1.15,2013-12-12 19:25:00,
2013-12-12 14:30:00,11.0,-0.2,30.19,West,279,6.0,6.0,60,0.00,,,0.00,Wunderground v.1.15,2013-12-12 19:30:00,
2013-12-12 14:35:00,11.4,0.2,30.19,WSW,246,3.0,6.0,60,0.00,,,0.00,Wunderground v.1.15,2013-12-12 19:35:00,
2013-12-12 14:45:00,11.8,0.6,30.19,SE,144,3.0,4.0,60,0.00,,,0.00,Wunderground v.1.15,2013-12-12 19:45:00,
2013-12-12 14:50:00,11.6,0.7,30.19,SW,225,3.0,6.0,61,0.00,,,0.00,Wunderground v.1.15,2013-12-12 19:50:00,
2013-12-12 14:55:00,11.6,0.7,30.19,SW,231,2.0,6.0,61,0.00,,,0.00,Wunderground v.1.15,2013-12-12 19:55:00,
2013-12-12 15:00:00,11.9,0.7,30.18,WNW,286,3.0,3.0,60,0.00,,,0.00,Wunderground v.1.15,2013-12-12 20:00:00,
2013-12-12 15:05:00,11.7,0.5,30.18,WNW,286,3.0,3.0,60,0.00,,,0.00,Wunderground v.1.15,2013-12-12 20:05:00,
2013-12-12 15:15:00,11.7,1.9,30.18,WNW,286,2.0,2.0,64,0.00,,,0.00,Wunderground v.1.15,2013-12-12 20:15:00,
2013-12-12 15:20:00,11.2,1.4,30.18,WNW,286,1.0,1.0,64,0.00,,,0.00,Wunderground v.1.15,2013-12-12 20:20:00,
2013-12-12 15:25:00,10.5,1.7,30.18,WNW,286,1.0,1.0,67,0.00,,,0.00,Wunderground v.1.15,2013-12-12 20:25:00,
2013-12-12 15:30:00,10.1,1.0,30.17,WNW,286,0.0,0.0,66,0.00,,,0.00,Wunderground v.1.15,2013-12-12 20:30:00,
2013-12-12 15:35:00,9.4,1.6,30.17,WNW,286,0.0,2.0,70,0.00,,,0.00,Wunderground v.1.15,2013-12-12 20:35:00,
2013-12-12 15:40:00,8.6,1.1,30.17,WNW,286,0.0,0.0,71,0.00,,,0.00,Wunderground v.1.15,2013-12-12 20:40:00,
2013-12-12 15:45:00,7.8,0.6,30.17,WNW,286,0.0,0.0,72,0.00,,,0.00,Wunderground v.1.15,2013-12-12 20:45:00,
2013-12-12 15:50:00,7.2,1.2,30.17,WNW,286,0.0,1.0,76,0.00,,,0.00,Wunderground v.1.15,2013-12-12 20:50:00,
2013-12-12 15:55:00,6.8,0.8,30.17,WNW,286,0.0,0.0,76,0.00,,,0.00,Wunderground v.1.15,2013-12-12 20:55:00,
2013-12-12 16:05:00,6.4,0.4,30.16,WNW,286,0.0,0.0,76,0.00,,,0.00,Wunderground v.1.15,2013-12-12 21:05:00,
2013-12-12 16:10:00,5.8,0.1,30.16,WNW,286,0.0,0.0,77,0.00,,,0.00,Wunderground v.1.15,2013-12-12 21:10:00,
2013-12-12 16:15:00,5.4,-0.5,30.16,WNW,286,0.0,0.0,76,0.00,,,0.00,Wunderground v.1.15,2013-12-12 21:15:00,
2013-12-12 16:20:00,5.1,-0.5,30.16,WNW,286,0.0,0.0,77,0.00,,,0.00,Wunderground v.1.15,2013-12-12 21:20:00,
2013-12-12 16:25:00,4.7,-0.9,30.16,WNW,286,0.0,0.0,77,0.00,,,0.00,Wunderground v.1.15,2013-12-12 21:25:00,
2013-12-12 16:35:00,3.6,-1.7,30.16,WNW,286,0.0,0.0,78,0.00,,,0.00,Wunderground v.1.15,2013-12-12 21:35:00,
2013-12-12 16:40:00,3.4,-1.9,30.16,WNW,286,0.0,0.0,78,0.00,,,0.00,Wunderground v.1.15,2013-12-12 21:40:00,
2013-12-12 16:45:00,3.1,-2.2,30.16,WNW,286,0.0,0.0,78,0.00,,,0.00,Wunderground v.1.15,2013-12-12 21:45:00,
2013-12-12 16:50:00,2.6,-2.4,30.15,WNW,286,0.0,0.0,79,0.00,,,0.00,Wunderground v.1.15,2013-12-12 21:50:00,
2013-12-12 16:55:00,2.3,-2.5,30.16,WNW,286,0.0,0.0,80,0.00,,,0.00,Wunderground v.1.15,2013-12-12 21:55:00,
2013-12-12 17:00:00,1.9,-3.1,30.16,WNW,286,0.0,0.0,79,0.00,,,0.00,Wunderground v.1.15,2013-12-12 22:00:00,
2013-12-12 17:05:00,1.8,-3.2,30.15,WNW,286,0.0,0.0,79,0.00,,,0.00,Wunderground v.1.15,2013-12-12 22:05:00,
2013-12-12 17:10:00,1.6,-3.1,30.15,WNW,286,0.0,0.0,80,0.00,,,0.00,Wunderground v.1.15,2013-12-12 22:10:00,
2013-12-12 17:15:00,1.4,-3.1,30.15,WNW,286,1.0,1.0,81,0.00,,,0.00,Wunderground v.1.15,2013-12-12 22:15:00,
2013-12-12 17:20:00,1.4,-3.1,30.15,WNW,286,1.0,1.0,81,0.00,,,0.00,Wunderground v.1.15,2013-12-12 22:20:00,
2013-12-12 17:25:00,1.4,-2.8,30.15,WNW,286,0.0,1.0,82,0.00,,,0.00,Wunderground v.1.15,2013-12-12 22:25:00,
2013-12-12 17:30:00,1.5,-2.7,30.15,WNW,286,0.0,0.0,82,0.00,,,0.00,Wunderground v.1.15,2013-12-12 22:30:00,
2013-12-12 17:40:00,1.9,-2.3,30.15,WNW,286,0.0,0.0,82,0.00,,,0.00,Wunderground v.1.15,2013-12-12 22:40:00,
2013-12-12 17:45:00,2.1,-2.1,30.15,WNW,286,0.0,0.0,82,0.00,,,0.00,Wunderground v.1.15,2013-12-12 22:45:00,
2013-12-12 17:50:00,2.2,-2.0,30.14,WNW,286,0.0,0.0,82,0.00,,,0.00,Wunderground v.1.15,2013-12-12 22:50:00,
2013-12-12 17:55:00,2.4,-1.8,30.14,WNW,286,0.0,0.0,82,0.00,,,0.00,Wunderground v.1.15,2013-12-12 22:55:00,
2013-12-12 18:00:00,2.5,-1.7,30.14,WNW,286,0.0,0.0,82,0.00,,,0.00,Wunderground v.1.15,2013-12-12 23:00:00,
2013-12-12 18:05:00,2.6,-1.6,30.14,WNW,286,0.0,0.0,82,0.00,,,0.00,Wunderground v.1.15,2013-12-12 23:05:00,
2013-12-12 18:10:00,2.7,-1.5,30.14,WNW,286,0.0,0.0,82,0.00,,,0.00,Wunderground v.1.15,2013-12-12 23:10:00,
2013-12-12 18:15:00,2.7,-1.5,30.14,WNW,286,0.0,0.0,82,0.00,,,0.00,Wunderground v.1.15,2013-12-12 23:15:00,
2013-12-12 18:25:00,2.7,-1.5,30.14,WNW,286,0.0,0.0,82,0.00,,,0.00,Wunderground v.1.15,2013-12-12 23:25:00,
2013-12-12 18:35:00,2.8,-1.4,30.14,WNW,286,0.0,0.0,82,0.00,,,0.00,Wunderground v.1.15,2013-12-12 23:35:00,
2013-12-12 18:40:00,2.8,-1.4,30.13,WNW,286,0.0,0.0,82,0.00,,,0.00,Wunderground v.1.15,2013-12-12 23:40:00,
2013-12-12 18:45:00,2.7,-1.5,30.13,WNW,286,0.0,0.0,82,0.00,,,0.00,Wunderground v.1.15,2013-12-12 23:45:00,
2013-12-12 18:50:00,2.7,-1.5,30.13,WNW,286,0.0,0.0,82,0.00,,,0.00,Wunderground v.1.15,2013-12-12 23:50:00,
2013-12-12 18:55:00,2.4,-1.8,30.13,WNW,286,0.0,0.0,82,0.00,,,0.00,Wunderground v.1.15,2013-12-12 23:55:00,
2013-12-12 19:05:00,2.0,-2.2,30.12,WNW,286,0.0,0.0,82,0.00,,,0.00,Wunderground v.1.15,2013-12-13 00:05:00,
2013-12-12 19:10:00,1.9,-2.1,30.12,WNW,286,0.0,0.0,83,0.00,,,0.00,Wunderground v.1.15,2013-12-13 00:10:00,
2013-12-12 19:15:00,1.9,-2.1,30.12,WNW,286,0.0,2.0,83,0.00,,,0.00,Wunderground v.1.15,2013-12-13 00:15:00,
2013-12-12 19:20:00,1.9,-2.1,30.12,WNW,286,0.0,0.0,83,0.00,,,0.00,Wunderground v.1.15,2013-12-13 00:20:00,
2013-12-12 19:25:00,2.0,-1.7,30.12,WNW,286,0.0,0.0,84,0.00,,,0.00,Wunderground v.1.15,2013-12-13 00:25:00,
2013-12-12 19:30:00,2.2,-1.5,30.11,WNW,286,0.0,0.0,84,0.00,,,0.00,Wunderground v.1.15,2013-12-13 00:30:00,
2013-12-12 19:35:00,2.3,-1.4,30.11,WNW,286,0.0,0.0,84,0.00,,,0.00,Wunderground v.1.15,2013-12-13 00:35:00,
2013-12-12 19:40:00,2.3,-1.7,30.11,WNW,286,0.0,0.0,83,0.00,,,0.00,Wunderground v.1.15,2013-12-13 00:40:00,
2013-12-12 19:45:00,2.4,-1.6,30.11,WNW,286,0.0,0.0,83,0.00,,,0.00,Wunderground v.1.15,2013-12-13 00:45:00,
2013-12-12 19:55:00,2.7,-1.0,30.10,WNW,286,0.0,1.0,84,0.00,,,0.00,Wunderground v.1.15,2013-12-13 00:55:00,
2013-12-12 20:05:00,3.2,-0.8,30.10,WNW,286,0.0,2.0,83,0.00,,,0.00,Wunderground v.1.15,2013-12-13 01:05:00,
2013-12-12 20:15:00,4.2,-0.1,30.09,SE,144,1.0,1.0,82,0.00,,,0.00,Wunderground v.1.15,2013-12-13 01:15:00,
2013-12-12 20:20:00,4.5,0.0,30.09,SE,144,1.0,1.0,81,0.00,,,0.00,Wunderground v.1.15,2013-12-13 01:20:00,
2013-12-12 20:30:00,4.9,0.1,30.08,SE,144,0.0,0.0,80,0.00,,,0.00,Wunderground v.1.15,2013-12-13 01:30:00,
2013-12-12 20:35:00,4.8,0.0,30.08,South,180,1.0,1.0,80,0.00,,,0.00,Wunderground v.1.15,2013-12-13 01:35:00,
2013-12-12 20:40:00,4.9,0.1,30.07,South,180,1.0,1.0,80,0.00,,,0.00,Wunderground v.1.15,2013-12-13 01:40:00,
2013-12-12 20:45:00,4.9,0.3,30.07,SSE,165,1.0,2.0,81,0.00,,,0.00,Wunderground v.1.15,2013-12-13 01:45:00,
2013-12-12 20:50:00,5.4,0.8,30.07,SSE,165,1.0,3.0,81,0.00,,,0.00,Wunderground v.1.15,2013-12-13 01:50:00,
2013-12-12 21:00:00,5.5,0.7,30.06,SE,146,1.0,2.0,80,0.00,,,0.00,Wunderground v.1.15,2013-12-13 02:00:00,
2013-12-12 21:05:00,6.1,1.5,30.06,SSE,163,1.0,2.0,81,0.00,,,0.00,Wunderground v.1.15,2013-12-13 02:05:00,
2013-12-12 21:10:00,6.6,2.0,30.05,SSE,163,1.0,1.0,81,0.00,,,0.00,Wunderground v.1.15,2013-12-13 02:10:00,
2013-12-12 21:15:00,7.1,2.5,30.05,South,178,1.0,2.0,81,0.00,,,0.00,Wunderground v.1.15,2013-12-13 02:15:00,
2013-12-12 21:20:00,7.4,2.8,30.05,SSW,199,2.0,3.0,81,0.00,,,0.00,Wunderground v.1.15,2013-12-13 02:20:00,
2013-12-12 21:25:00,7.9,3.3,30.05,SSW,208,2.0,3.0,81,0.00,,,0.00,Wunderground v.1.15,2013-12-13 02:25:00,
2013-12-12 21:30:00,8.2,3.6,30.05,SSE,148,3.0,5.0,81,0.00,,,0.00,Wunderground v.1.15,2013-12-13 02:30:00,
2013-12-12 21:35:00,8.5,3.9,30.04,SSE,155,3.0,5.0,81,0.00,,,0.00,Wunderground v.1.15,2013-12-13 02:35:00,
2013-12-12 21:40:00,8.5,4.1,30.04,South,185,4.0,4.0,82,0.00,,,0.00,Wunderground v.1.15,2013-12-13 02:40:00,
2013-12-12 21:45:00,8.5,4.1,30.04,SSE,167,3.0,4.0,82,0.00,,,0.00,Wunderground v.1.15,2013-12-13 02:45:00,
2013-12-12 21:50:00,8.5,4.4,30.04,SSE,167,2.0,2.0,83,0.00,,,0.00,Wunderground v.1.15,2013-12-13 02:50:00,
2013-12-12 21:55:00,8.5,4.4,30.04,SSE,155,2.0,2.0,83,0.00,,,0.00,Wunderground v.1.15,2013-12-13 02:55:00,
2013-12-12 22:00:00,8.6,4.5,30.03,SSE,155,1.0,4.0,83,0.00,,,0.00,Wunderground v.1.15,2013-12-13 03:00:00,
2013-12-12 22:05:00,8.6,4.8,30.03,SSW,198,2.0,4.0,84,0.00,,,0.00,Wunderground v.1.15,2013-12-13 03:05:00,
2013-12-12 22:10:00,8.7,4.9,30.03,SSW,201,2.0,2.0,84,0.00,,,0.00,Wunderground v.1.15,2013-12-13 03:10:00,
2013-12-12 22:15:00,8.9,5.1,30.03,South,171,2.0,3.0,84,0.00,,,0.00,Wunderground v.1.15,2013-12-13 03:15:00,
2013-12-12 22:20:00,8.9,5.3,30.02,SSE,153,3.0,3.0,85,0.00,,,0.00,Wunderground v.1.15,2013-12-13 03:20:00,
2013-12-12 22:25:00,9.0,5.4,30.02,SSE,153,2.0,3.0,85,0.00,,,0.00,Wunderground v.1.15,2013-12-13 03:25:00,
2013-12-12 22:30:00,9.1,5.5,30.02,SSE,155,1.0,2.0,85,0.00,,,0.00,Wunderground v.1.15,2013-12-13 03:30:00,
2013-12-12 22:35:00,9.3,5.7,30.02,SSE,155,1.0,2.0,85,0.00,,,0.00,Wunderground v.1.15,2013-12-13 03:35:00,
2013-12-12 22:40:00,9.4,5.8,30.02,South,177,1.0,3.0,85,0.00,,,0.00,Wunderground v.1.15,2013-12-13 03:40:00,
2013-12-12 22:45:00,9.5,5.9,30.01,South,177,1.0,3.0,85,0.00,,,0.00,Wunderground v.1.15,2013-12-13 03:45:00,
2013-12-12 22:50:00,9.6,6.0,30.01,South,177,1.0,1.0,85,0.00,,,0.00,Wunderground v.1.15,2013-12-13 03:50:00,
2013-12-12 22:55:00,9.6,6.0,30.01,South,177,1.0,1.0,85,0.00,,,0.00,Wunderground v.1.15,2013-12-13 03:55:00,
2013-12-12 23:00:00,9.7,6.1,30.01,South,177,0.0,0.0,85,0.00,,,0.00,Wunderground v.1.15,2013-12-13 04:00:00,
2013-12-12 23:05:00,9.8,6.2,30.01,South,177,0.0,1.0,85,0.00,,,0.00,Wunderground v.1.15,2013-12-13 04:05:00,
2013-12-12 23:10:00,10.0,6.4,30.01,SW,215,0.0,1.0,85,0.00,,,0.00,Wunderground v.1.15,2013-12-13 04:10:00,
2013-12-12 23:15:00,10.1,6.5,30.01,SW,215,1.0,1.0,85,0.00,,,0.00,Wunderground v.1.15,2013-12-13 04:15:00,
2013-12-12 23:20:00,10.1,6.5,30.01,South,186,1.0,1.0,85,0.00,,,0.00,Wunderground v.1.15,2013-12-13 04:20:00,
2013-12-12 23:25:00,10.2,6.6,30.01,South,186,1.0,2.0,85,0.00,,,0.00,Wunderground v.1.15,2013-12-13 04:25:00,
2013-12-12 23:30:00,10.3,6.9,30.00,South,186,1.0,2.0,86,0.00,,,0.00,Wunderground v.1.15,2013-12-13 04:30:00,
2013-12-12 23:35:00,10.3,6.9,30.00,SSE,160,2.0,3.0,86,0.00,,,0.00,Wunderground v.1.15,2013-12-13 04:35:00,
2013-12-12 23:40:00,10.4,7.0,30.00,SSE,162,3.0,3.0,86,0.00,,,0.00,Wunderground v.1.15,2013-12-13 04:40:00,
2013-12-12 23:45:00,10.4,7.0,29.99,SSE,161,3.0,3.0,86,0.00,,,0.00,Wunderground v.1.15,2013-12-13 04:45:00,
2013-12-12 23:50:00,10.5,7.1,29.99,South,190,2.0,3.0,86,0.00,,,0.00,Wunderground v.1.15,2013-12-13 04:50:00,
2013-12-12 23:55:00,10.5,7.1,29.99,South,189,2.0,3.0,86,0.00,,,0.00,Wunderground v.1.15,2013-12-13 04:55:00,